Location: Middle Street
(51.7167°N, 0.0333°E)
Time: 19:40:13
(UTC+00:00)

Cosmos 923 Rocket - Pass Details

Date: 20 January 2021
Orbit: 758 x 785 km, 74.0° (Epoch: 27 February)

Event Time Altitude Azimuth Distance (km) Brightness Sun altitude
Rises 18:07:18 0° 336° (NNW) 3,290 7.4 -15.0°
Reaches altitude 10° 18:09:45 10° 340° (NNW) 2,357 6.6 -15.3°
Maximum altitude 18:15:02 59° 60° (ENE) 910 4.0 -16.1°
Drops below altitude 10° 18:20:17 10° 140° (SE) 2,333 6.2 -16.9°
Sets 18:22:41 0° 144° (SE) 3,253 7.0 -17.3°
